Bad Axe, MI

5:37 AM EST on December 15, 2017 (GMT -0500)
Huron County Memorial

Weather History for KBAX - April, 2014

Change the Weather History Date:

Monday, April 7, 2014

  Actual Average (KP58) Record (KP58)
Temperature  
Mean Temperature 38 °F -  
Max Temperature 50 °F 42 °F 64 °F (2008)
Min Temperature 27 °F 32 °F 19 °F (2007)
Degree Days  
Heating Degree Days 26    
Moisture  
Dew Point 28 °F    
Average Humidity 64    
Maximum Humidity 86    
Minimum Humidity 45    
Precipitation  
Precipitation 0.00 in - - ()
Sea Level Pressure  
Sea Level Pressure 29.81 in    
Wind  
Wind Speed 4 mph (East)    
Max Wind Speed 9 mph    
Max Gust Speed -    
Visibility 10 miles    
Events      
Averages and records for this station are not official NWS values.
T = Trace of Precipitation, MM = Missing Value Source: NWS Daily Summary

Daily Weather History Graph

Daily Weather History Graph

Search for Another Location

Airport or City:

Trip Planner

Search our weather history database for the weather conditions in past years. The results will help you decide how hot, cold, wet, or windy it might be!

Date:

Astronomy

Apr. 07, 2014 Rise Set
Actual Time 7:02 AM EDT 8:06 PM EDT
Civil Twilight 6:33 AM EDT 8:35 PM EDT
Nautical Twilight 5:58 AM EDT 9:10 PM EDT
Astronomical Twilight 5:21 AM EDT 9:47 PM EDT
Moon 12:52 PM EDT (4/7) 2:47 AM EDT (4/7)
Length of Visible Light 14h 02m
Length of Day
13h 03m
First Quarter, 53% of the Moon is Illuminated
Apr 7
First Quarter
Apr 15
Full
Apr 22
Last Quarter
Apr 29
New
May 6
First Quarter

Hourly Weather History & Observations

Time (EDT) Temp. Windchill Dew Point Humidity Pressure Visibility Wind Dir Wind Speed Gust Speed Precip Events Conditions
12:16 AM 39.2 °F 35.9 °F 25.5 °F 58% 30.03 in 10.0 mi South 4.6 mph - N/A   Clear
12:37 AM 39.2 °F 37.0 °F 25.7 °F 58% 30.03 in 10.0 mi South 3.5 mph - N/A   Clear
12:56 AM 39.2 °F 35.9 °F 25.7 °F 58% 30.02 in 10.0 mi South 4.6 mph - N/A   Clear
1:16 AM 37.8 °F 35.3 °F 25.5 °F 61% 30.02 in 10.0 mi South 3.5 mph - N/A   Clear
1:37 AM 37.9 °F 34.4 °F 25.2 °F 60% 30.02 in 10.0 mi South 4.6 mph - N/A   Clear
1:56 AM 37.4 °F 32.8 °F 25.7 °F 63% 30.03 in 10.0 mi South 5.8 mph - N/A   Clear
2:16 AM 36.9 °F 31.4 °F 26.1 °F 65% 30.02 in 10.0 mi South 6.9 mph - N/A   Clear
2:37 AM 37.0 °F - 26.2 °F 65% 30.01 in 10.0 mi Calm Calm - N/A   Clear
2:56 AM 36.5 °F 33.9 °F 26.2 °F 66% 30.00 in 10.0 mi South 3.5 mph - N/A   Clear
3:16 AM 36.7 °F - 26.4 °F 66% 29.99 in 10.0 mi Calm Calm - N/A   Clear
3:36 AM 36.5 °F - 26.1 °F 66% 29.98 in 10.0 mi Calm Calm - N/A   Clear
3:56 AM 36.0 °F - 25.7 °F 66% 29.97 in 10.0 mi Calm Calm - N/A   Clear
4:16 AM 35.2 °F - 25.3 °F 67% 29.97 in 10.0 mi Calm Calm - N/A   Clear
4:37 AM 34.9 °F 32.0 °F 25.3 °F 68% 29.96 in 10.0 mi SSE 3.5 mph - N/A   Clear
4:56 AM 34.3 °F 30.2 °F 24.4 °F 67% 29.95 in 10.0 mi SSE 4.6 mph - N/A   Clear
5:16 AM 34.3 °F - 23.4 °F 64% 29.95 in 10.0 mi Calm Calm - N/A   Clear
5:36 AM 33.4 °F - 22.5 °F 64% 29.95 in 10.0 mi Calm Calm - N/A   Clear
5:56 AM 28.4 °F - 22.3 °F 78% 29.94 in 10.0 mi Calm Calm - N/A   Clear
6:17 AM 28.8 °F - 22.8 °F 78% 29.93 in 10.0 mi Calm Calm - N/A   Clear
6:36 AM 28.6 °F - 22.5 °F 78% 29.94 in 10.0 mi Calm Calm - N/A   Clear
6:56 AM 28.4 °F - 22.8 °F 80% 29.93 in 10.0 mi Calm Calm - N/A   Clear
7:17 AM 27.9 °F - 23.9 °F 85% 29.95 in 10.0 mi Calm Calm - N/A   Clear
7:36 AM 27.5 °F - 23.9 °F 86% 29.94 in 10.0 mi Calm Calm - N/A   Clear
7:56 AM 30.0 °F - 26.2 °F 86% 29.94 in 10.0 mi Calm Calm - N/A   Clear
8:17 AM 31.8 °F - 27.3 °F 83% 29.94 in 10.0 mi Calm Calm - N/A   Clear
8:36 AM 33.3 °F - 28.9 °F 84% 29.93 in 10.0 mi Calm Calm - N/A   Clear
8:56 AM 34.3 °F - 29.8 °F 84% 29.93 in 10.0 mi Calm Calm - N/A   Clear
9:17 AM 39.0 °F - 27.7 °F 64% 29.91 in 10.0 mi Calm Calm - N/A   Clear
9:36 AM 40.5 °F - 25.3 °F 55% 29.91 in 10.0 mi Calm Calm - N/A   Clear
9:56 AM 41.9 °F 39.0 °F 24.8 °F 51% 29.91 in 10.0 mi SE 4.6 mph - N/A   Clear
10:17 AM 42.3 °F 37.9 °F 24.3 °F 49% 29.90 in 10.0 mi East 6.9 mph - N/A   Clear
10:36 AM 43.2 °F 39.7 °F 24.4 °F 48% 29.91 in 10.0 mi SE 5.8 mph - N/A   Clear
10:56 AM 43.0 °F 40.3 °F 23.9 °F 47% 29.90 in 10.0 mi ESE 4.6 mph - N/A   Clear
11:17 AM 43.7 °F 41.1 °F 24.8 °F 47% 29.89 in 10.0 mi ESE 4.6 mph - N/A   Clear
11:36 AM 43.9 °F 41.3 °F 25.0 °F 47% 29.87 in 10.0 mi East 4.6 mph - N/A   Clear
11:56 AM 44.6 °F 42.2 °F 24.3 °F 45% 29.86 in 10.0 mi East 4.6 mph - N/A   Clear
12:16 PM 44.4 °F 42.0 °F 25.3 °F 47% 29.85 in 10.0 mi East 4.6 mph - N/A   Clear
12:36 PM 44.1 °F 42.5 °F 25.5 °F 48% 29.84 in 10.0 mi ESE 3.5 mph - N/A   Clear
12:57 PM 44.4 °F 42.0 °F 26.1 °F 49% 29.82 in 10.0 mi East 4.6 mph - N/A   Clear
1:16 PM 44.6 °F 40.7 °F 26.2 °F 49% 29.80 in 10.0 mi East 6.9 mph - N/A   Clear
1:36 PM 46.0 °F 41.9 °F 27.7 °F 49% 29.78 in 10.0 mi East 8.1 mph - N/A   Clear
1:57 PM 46.9 °F - 29.8 °F 51% 29.77 in 10.0 mi ENE 6.9 mph - N/A   Clear
2:16 PM 47.8 °F - 28.6 °F 47% 29.76 in 10.0 mi East 5.8 mph - N/A   Clear
2:37 PM 49.1 °F - 28.8 °F 45% 29.74 in 10.0 mi NE 6.9 mph - N/A   Clear
2:57 PM 49.8 °F - 29.3 °F 45% 29.73 in 10.0 mi ENE 6.9 mph - N/A   Clear
3:16 PM 49.3 °F - 30.7 °F 49% 29.72 in 10.0 mi NE 6.9 mph - N/A   Clear
3:37 PM 50.0 °F - 30.4 °F 47% 29.70 in 10.0 mi ENE 9.2 mph - N/A   Clear
4:16 PM 48.4 °F - 30.6 °F 50% 29.68 in 10.0 mi NE 8.1 mph - N/A   Scattered Clouds
4:37 PM 48.0 °F - 30.6 °F 51% 29.67 in 10.0 mi NE 9.2 mph - N/A   Scattered Clouds
4:57 PM 46.8 °F - 29.5 °F 51% 29.66 in 10.0 mi East 8.1 mph - N/A   Scattered Clouds
5:16 PM 45.9 °F 41.7 °F 29.7 °F 53% 29.66 in 10.0 mi East 8.1 mph - N/A   Overcast
5:37 PM 45.7 °F 41.5 °F 31.3 °F 57% 29.66 in 10.0 mi NE 8.1 mph - N/A   Overcast
5:57 PM 45.5 °F 42.5 °F 31.8 °F 59% 29.66 in 10.0 mi NE 5.8 mph - N/A   Overcast
6:16 PM 43.9 °F 39.9 °F 32.0 °F 63% 29.65 in 10.0 mi NNE 6.9 mph - N/A   Overcast
6:37 PM 42.8 °F 38.6 °F 31.1 °F 63% 29.65 in 10.0 mi NE 6.9 mph - N/A   Overcast
6:57 PM 41.9 °F 38.2 °F 31.1 °F 66% 29.65 in 10.0 mi NE 5.8 mph - N/A   Mostly Cloudy
7:16 PM 41.0 °F 37.1 °F 31.6 °F 69% 29.64 in 10.0 mi NE 5.8 mph - N/A   Mostly Cloudy
7:37 PM 40.5 °F 36.5 °F 30.6 °F 68% 29.63 in 10.0 mi NE 5.8 mph - N/A   Overcast
7:57 PM 40.1 °F 38.0 °F 30.9 °F 70% 29.62 in 10.0 mi NE 3.5 mph - N/A   Overcast
8:16 PM 39.7 °F 36.5 °F 31.1 °F 71% 29.60 in 10.0 mi NE 4.6 mph - N/A   Overcast
8:37 PM 38.8 °F 34.6 °F 31.5 °F 75% 29.59 in 10.0 mi NE 5.8 mph - N/A   Scattered Clouds
8:56 PM 38.3 °F 33.2 °F 31.3 °F 76% 29.59 in 10.0 mi NE 6.9 mph - N/A   Clear
9:16 PM 38.3 °F 33.9 °F 31.8 °F 77% 29.59 in 10.0 mi NNE 5.8 mph - N/A   Scattered Clouds
9:37 PM 37.9 °F 34.4 °F 31.6 °F 78% 29.58 in 10.0 mi NNE 4.6 mph - N/A   Overcast
9:56 PM 38.3 °F 35.9 °F 31.6 °F 77% 29.58 in 10.0 mi NE 3.5 mph - N/A   Overcast
10:17 PM 38.3 °F - 31.8 °F 77% 29.57 in 10.0 mi Calm Calm - N/A   Overcast
10:37 PM 37.9 °F - 32.0 °F 79% 29.56 in 10.0 mi Calm Calm - N/A   Overcast
10:56 PM 37.9 °F 35.5 °F 32.0 °F 79% 29.55 in 10.0 mi North 3.5 mph - N/A   Overcast
11:17 PM 37.6 °F 34.0 °F 32.0 °F 80% 29.54 in 10.0 mi North 4.6 mph - N/A   Overcast
11:37 PM 37.9 °F 34.4 °F 32.2 °F 80% 29.54 in 10.0 mi North 4.6 mph - N/A   Overcast
11:56 PM 37.8 °F - 32.0 °F 80% 29.53 in 10.0 mi Calm Calm - N/A   Overcast